TimeMST,TemperatureF,Dew PointF,Humidity,Sea Level PressureIn,VisibilityMPH,Wind Direction,Wind SpeedMPH,Gust SpeedMPH,PrecipitationIn,Events,Conditions,WindDirDegrees,DateUTC
12:15 AM,48.2,48.2,100,30.22,5.0,Calm,Calm,-,N/A,,Overcast,0,2013-01-08 07:15:00
12:35 AM,48.2,48.2,100,30.22,5.0,Calm,Calm,-,N/A,,Overcast,0,2013-01-08 07:35:00
12:55 AM,48.2,48.2,100,30.22,5.0,Calm,Calm,-,N/A,,Overcast,0,2013-01-08 07:55:00
1:15 AM,46.4,46.4,100,30.21,7.0,South,3.5,-,N/A,,Light Drizzle,180,2013-01-08 08:15:00
1:35 AM,46.4,46.4,100,30.21,5.0,Calm,Calm,-,N/A,,Drizzle,0,2013-01-08 08:35:00
1:55 AM,48.2,48.2,100,30.21,7.0,Calm,Calm,-,0.01,,Drizzle,0,2013-01-08 08:55:00
2:15 AM,48.2,48.2,100,30.21,5.0,Calm,Calm,-,N/A,,Drizzle,0,2013-01-08 09:15:00
2:35 AM,48.2,48.2,100,30.19,5.0,East,4.6,-,N/A,,Drizzle,90,2013-01-08 09:35:00
2:55 AM,48.2,48.2,100,30.19,10.0,East,5.8,-,N/A,,Overcast,80,2013-01-08 09:55:00
3:15 AM,48.2,48.2,100,30.19,5.0,Calm,Calm,-,N/A,Rain,Light Rain,0,2013-01-08 10:15:00
3:35 AM,46.4,46.4,100,30.18,4.0,ENE,5.8,-,0.01,,Drizzle,60,2013-01-08 10:35:00
3:55 AM,46.4,46.4,100,30.16,4.0,ENE,5.8,-,0.01,,Drizzle,60,2013-01-08 10:55:00
4:15 AM,46.4,46.4,100,30.16,3.0,ENE,5.8,-,0.01,,Drizzle,60,2013-01-08 11:15:00
4:35 AM,46.4,46.4,100,30.15,3.0,Calm,Calm,-,0.02,,Heavy Drizzle,0,2013-01-08 11:35:00
5:15 AM,46.4,46.4,100,30.13,2.5,North,3.5,-,0.02,Rain,Heavy Rain,10,2013-01-08 12:15:00
5:35 AM,46.4,46.4,100,30.12,3.0,NNE,4.6,-,0.05,,Heavy Drizzle,30,2013-01-08 12:35:00
5:55 AM,46.4,46.4,100,30.11,3.0,NNE,5.8,-,0.08,,Heavy Drizzle,20,2013-01-08 12:55:00
6:35 AM,48.2,48.2,100,30.09,5.0,Calm,Calm,-,0.03,,Drizzle,0,2013-01-08 13:35:00
7:15 AM,51.8,51.8,100,30.08,3.0,SSW,17.3,24.2,0.02,Rain,Rain,200,2013-01-08 14:15:00
7:35 AM,53.6,53.6,100,30.08,4.0,SW,15.0,26.5,0.04,Rain,Rain,220,2013-01-08 14:35:00
7:55 AM,51.8,51.8,100,30.09,3.0,SW,12.7,-,0.06,Rain,Rain,220,2013-01-08 14:55:00
8:15 AM,51.8,51.8,100,30.09,4.0,SW,12.7,17.3,0.01,Rain,Light Rain,220,2013-01-08 15:15:00
8:35 AM,53.6,51.8,94,30.09,7.0,SW,10.4,19.6,0.03,Rain,Light Rain,220,2013-01-08 15:35:00
8:55 AM,53.6,51.8,94,30.09,3.0,SSW,13.8,25.3,0.03,,Drizzle,210,2013-01-08 15:55:00
9:15 AM,51.8,51.8,100,30.09,1.8,SSW,17.3,24.2,0.01,,Drizzle,210,2013-01-08 16:15:00
9:35 AM,53.6,51.8,94,30.10,3.0,SSW,17.3,29.9,0.01,Rain,Light Rain,200,2013-01-08 16:35:00
9:55 AM,53.6,51.8,94,30.10,2.0,South,18.4,32.2,0.01,Rain,Rain,190,2013-01-08 16:55:00
10:15 AM,53.6,51.8,94,30.10,4.0,South,13.8,20.7,N/A,Rain,Light Rain,190,2013-01-08 17:15:00
10:35 AM,53.6,51.8,94,30.11,3.0,SSW,10.4,17.3,0.01,Rain,Light Rain,200,2013-01-08 17:35:00
10:55 AM,53.6,51.8,94,30.11,1.8,SSW,15.0,23.0,0.01,,Light Drizzle,200,2013-01-08 17:55:00
11:15 AM,53.6,51.8,94,30.11,2.0,South,11.5,15.0,N/A,,Light Drizzle,190,2013-01-08 18:15:00
11:35 AM,53.6,51.8,94,30.11,1.8,South,16.1,23.0,N/A,,Drizzle,190,2013-01-08 18:35:00
11:55 AM,53.6,51.8,94,30.11,2.5,SSW,9.2,23.0,N/A,Rain,Light Rain,200,2013-01-08 18:55:00
12:15 PM,53.6,51.8,94,30.09,1.5,SSW,16.1,25.3,N/A,Rain,Light Rain,200,2013-01-08 19:15:00
12:55 PM,53.6,51.8,94,30.08,4.0,South,17.3,23.0,0.01,,Overcast,190,2013-01-08 19:55:00
1:15 PM,53.6,51.8,94,30.08,1.8,South,17.3,31.1,N/A,,Overcast,190,2013-01-08 20:15:00
1:35 PM,53.6,51.8,94,30.07,1.2,South,24.2,32.2,N/A,Rain,Light Rain,190,2013-01-08 20:35:00
1:55 PM,53.6,51.8,94,30.07,1.5,South,21.9,33.4,N/A,Rain,Rain,190,2013-01-08 20:55:00
2:15 PM,53.6,51.8,94,30.06,1.2,South,18.4,28.8,N/A,,Drizzle,190,2013-01-08 21:15:00
2:35 PM,53.6,51.8,94,30.06,2.5,South,19.6,29.9,N/A,,Overcast,190,2013-01-08 21:35:00
2:55 PM,53.6,51.8,94,30.05,10.0,South,23.0,38.0,N/A,,Overcast,190,2013-01-08 21:55:00
3:15 PM,53.6,51.8,94,30.04,3.0,South,20.7,29.9,N/A,,Overcast,190,2013-01-08 22:15:00
3:35 PM,53.6,51.8,94,30.05,5.0,South,13.8,25.3,N/A,,Overcast,190,2013-01-08 22:35:00
3:55 PM,53.6,50.0,88,30.05,4.0,South,15.0,27.6,N/A,,Overcast,190,2013-01-08 22:55:00
4:15 PM,53.6,50.0,88,30.05,3.0,South,19.6,26.5,N/A,Rain,Rain,180,2013-01-08 23:15:00
4:35 PM,53.6,50.0,88,30.04,2.5,SSW,20.7,29.9,N/A,Rain,Light Rain,200,2013-01-08 23:35:00
4:55 PM,53.6,50.0,88,30.04,7.0,South,15.0,23.0,N/A,,Overcast,180,2013-01-08 23:55:00
5:15 PM,53.6,50.0,88,30.03,3.0,South,15.0,24.2,N/A,,Light Drizzle,180,2013-01-09 00:15:00
5:35 PM,53.6,50.0,88,30.03,5.0,South,10.4,-,N/A,,Overcast,190,2013-01-09 00:35:00
5:55 PM,53.6,50.0,88,30.02,3.0,South,17.3,23.0,N/A,,Overcast,190,2013-01-09 00:55:00
6:15 PM,53.6,50.0,88,30.01,7.0,South,17.3,23.0,N/A,,Overcast,180,2013-01-09 01:15:00
6:35 PM,53.6,50.0,88,30.00,10.0,South,10.4,19.6,N/A,,Overcast,180,2013-01-09 01:35:00
6:55 PM,53.6,50.0,88,29.99,10.0,SSW,12.7,19.6,N/A,,Overcast,200,2013-01-09 01:55:00
7:15 PM,53.6,50.0,88,29.99,10.0,SSW,9.2,20.7,N/A,,Drizzle,200,2013-01-09 02:15:00
7:35 PM,53.6,50.0,88,29.99,10.0,South,10.4,19.6,N/A,,Light Drizzle,180,2013-01-09 02:35:00
7:55 PM,53.6,50.0,88,29.99,10.0,South,13.8,18.4,N/A,Rain,Rain,190,2013-01-09 02:55:00
8:35 PM,53.6,50.0,88,29.97,5.0,South,16.1,21.9,N/A,,Drizzle,190,2013-01-09 03:35:00
9:15 PM,51.8,50.0,94,29.96,5.0,South,12.7,29.9,N/A,Rain,Light Rain,190,2013-01-09 04:15:00
9:35 PM,51.8,50.0,94,29.96,5.0,South,12.7,18.4,N/A,,Drizzle,190,2013-01-09 04:35:00
10:15 PM,51.8,50.0,94,29.94,5.0,SSW,8.1,21.9,N/A,,Drizzle,200,2013-01-09 05:15:00
10:55 PM,51.8,48.2,88,29.95,4.0,SSW,18.4,28.8,N/A,Rain,Light Rain,200,2013-01-09 05:55:00
11:15 PM,51.8,48.2,88,29.93,5.0,SSW,17.3,32.2,N/A,,Light Drizzle,200,2013-01-09 06:15:00
11:35 PM,51.8,48.2,88,29.92,5.0,South,18.4,33.4,N/A,,Overcast,190,2013-01-09 06:35:00
11:55 PM,51.8,46.4,82,29.91,10.0,South,19.6,32.2,N/A,,Overcast,190,2013-01-09 06:55:00